Home   Weather   Washim   Past weeks

Flag for India Past Weather in Washim, Maharashtra, India — Yesterday and Last 2 Weeks

Now
84 °F

Haze.


Feels Like: 82 °F
Forecast: 61 / 84 °F
Wind: 7 mph from Southeast

Location: Nagpur Sonegaon

Current Time: Jan 20, 2017 at 3:48:02 pm

Latest Report: Jan 20, 2017 at 3:00 pm


Visibility: 2 mi

Pressure: 30.04 "Hg (28.24 "Hg at 546m altitude)

Humidity: 31%

Dew Point: 50 °F

Location of WashimLocation

Past Weather in Washim — Graph

°F

Washim Temperature Yesterday

Maximum temperature yesterday: 84 °F (at 12:30 pm)
Minimum temperature yesterday: 59 °F (at 3:30 am)
Average temperature yesterday: 71 °F

High & Low Weather Summary for the Past Weeks

 TemperatureHumidityPressure
High88 °F (Jan 7, 2:30 pm)100% (Jan 9, 6:32 am)30.15 "Hg (Jan 9, 6:32 am)
Low50 °F (Jan 12, 7:30 am)18% (Jan 15, 2:30 pm)29.80 "Hg (Jan 7, 3:30 pm)
Average69 °F55%29.99 "Hg
* Reported Jan 5 2:30 pm — Jan 20 2:30 pm, Washim, Weather by CustomWeather, © 2017

Note: Actual official high and low records may vary slightly from our data, if they occured in-between our weather recording intervals... More about our weather records

Advertising

Washim Weather History for the Previous 24 Hours

Scroll right to see more
 ConditionsComfort  
Time TempWeatherWind HumidityBarometerVisibility
2:30 pm
Fri, Jan 20
82 °FHaze.6 mph37%30.04 "Hg2 mi
2:00 pm84 °FHaze.3 mph33%30.04 "Hg1 mi
1:30 pm84 °FHaze.6 mph35%30.07 "Hg1 mi
1:00 pm82 °FHaze.7 mph42%30.07 "Hg1 mi
12:30 pm82 °FHaze.6 mph40%30.09 "Hg1 mi
11:30 am81 °FHaze.6 mph45%30.15 "Hg1 mi
11:00 am79 °FHaze.3 mph48%30.15 "Hg1 mi
10:30 am77 °FHaze.7 mph47%30.15 "Hg1 mi
10:00 am75 °FFog.5 mph54%30.15 "Hg1 mi
9:30 am72 °FFog.5 mph61%30.15 "Hg1 mi
8:30 am66 °FHaze.2 mph73%30.15 "Hg1 mi
8:00 am64 °FHaze.No wind73%30.15 "Hg1 mi
7:30 am63 °FHaze.No wind77%30.12 "Hg1 mi
7:00 am61 °FHaze.No wind77%30.12 "Hg1 mi
6:30 am61 °FHaze.No wind77%30.09 "Hg1 mi
6:00 am61 °FHaze.No wind77%30.09 "Hg1 mi
5:30 am63 °FHaze.No wind68%30.09 "Hg1 mi
5:00 am63 °FHaze.No wind73%30.09 "Hg1 mi
4:30 am61 °FHaze.No wind72%30.07 "Hg2 mi
4:00 am63 °FHaze.No wind73%30.07 "Hg2 mi
3:30 am63 °FHaze.No wind68%30.07 "Hg2 mi
3:00 am66 °FHaze.2 mph68%30.07 "Hg2 mi
2:30 am66 °FHaze.2 mph68%30.09 "Hg2 mi
2:00 am66 °FHaze.2 mph68%30.09 "Hg2 mi
1:30 am68 °FHaze.2 mph60%30.09 "Hg2 mi
12:30 am66 °FHaze.3 mph64%30.09 "Hg2 mi
12:00 am66 °FHaze.No wind60%30.12 "Hg2 mi
11:30 pm
Thu, Jan 19
66 °FHaze.No wind60%30.12 "Hg2 mi
11:00 pm68 °FHaze.No wind56%30.09 "Hg2 mi
10:00 pm68 °FHaze.No wind56%30.09 "Hg2 mi
9:30 pm70 °FHaze.No wind53%30.09 "Hg2 mi
9:00 pm70 °FHaze.No wind53%30.09 "Hg2 mi
8:30 pm70 °FHaze.No wind53%30.09 "Hg2 mi
8:00 pm72 °FHaze.No wind50%30.09 "Hg2 mi
7:00 pm75 °FHaze.No wind41%30.07 "Hg2 mi
6:30 pm75 °FHaze.No wind41%30.04 "Hg2 mi
5:30 pm81 °FHaze.2 mph34%30.04 "Hg2 mi
5:00 pm82 °FHaze.5 mph32%30.04 "Hg2 mi
4:30 pm84 °FHaze.2 mph33%30.04 "Hg2 mi
4:00 pm84 °FHaze.6 mph33%30.04 "Hg2 mi
3:30 pm84 °FHaze.5 mph33%30.04 "Hg2 mi
Weather by CustomWeather, © 2017

See weather overviewHow to use our weather pages